SCP
0 0 -0 0 -0 -0 0 0 0 0 0 -0 -0 -0 0 0 -0 0 0 0 -0 -0 -0 -0 -0 -0 -0 -0 -0 -0 -0 -0 -0 -0 -0 0 0 0 -0 -0 -0 -0 -0 -0 -0 -0 -0 -0 -0
0 -0 0 0 0 0 -0 -0 -0 -0 0 -0 -0 0 -0 0 0 -0 0 -0 -0 -0 -0 -0 -0 -0 -0 -0 -0 -0 -0 -0 -0 -0 0 0 0 -0 -0 -0 -0 -0 -0 -0 -0 0 -0 -0 -0
0 0 0 0 0 0 0 0 -0 0 0 0 0 -0 0 -0 -0 0 -0 -0 -0 -0 0 -0 -0 -0 -0 -0 -0 -0 -0 -0 -0 0 0 0 -0 -0 -0 -0 -0 -0 -0 -0 -0 -0 -0 -0 -0
0 0 0 0 0 0 0 -0 0 0 0 0 0 -0 -0 -0 -0 -0 -0 -0 -0 -0 0 -0 -0 -0 -0 -0 -0 -0 -0 -0 -0 0 -0 -0 -0 -0 -0 -0 -0 -0 -0 -0 -0 0 0 -0 -0
0 0 0 0 0 0 0 0 0 -0 0 0 0 0 0 -0 -0 -1 -0 -0 -0 -0 0 -0 -0 -0 -0 -0 -0 -0 -0 -0 -0 -0 -0 -0 -0 -0 -0 -0 -0 -0 -0 -0 -0 0 0 -0 -0
0 0 0 0 0 0 0 0 -0 -0 0 0 0 0 -0 -0 -1 -0 -0 -0 -0 -0 0 0 -0 -0 -0 -0 -0 0 -0 -0 -0 -0 -0 -0 -0 -0 -0 -0 -0 -0 -0 -0 -0 0 0 -0 -1
-0 -0 0 0 0 0 0 0 0 0 0 0 -0 0 -0 -0 -0 -0 -0 -0 0 0 0 0 0 0 0 0 0 0 -0 -0 -0 -0 -0 -0 -0 -0 -0 -0 -0 -0 -0 -0 0 0 0 -0 -0
0 -0 0 0 0 0 0 -0 -0 -0 0 0 -0 0 0 -0 -0 -0 -0 -0 -0 0 0 0 0 0 0 0 0 -0 -0 -0 -0 -0 -0 -0 -0 -0 -0 -0 -0 -0 -0 -0 0 0 0 -0 -0
0 -0 -0 -0 0 0 -0 -0 0 0 0 -0 0 0 -0 -0 -0 -0 -0 -0 -0 0 0 0 0 0 0 -0 -0 -0 -0 -0 -0 -0 -0 -0 -0 -0 -0 -0 -0 -0 -0 -0 -0 0 0 -0 -0
0 -0 0 0 0 -0 0 -0 0 0 0 0 0 -0 -0 -0 -0 -0 -0 -0 -0 -0 -0 -0 0 0 0 -0 -0 -0 -0 -0 -0 -0 -0 -0 -0 -0 -0 -0 -0 -0 -0 -0 -1 -0 0 0 0
-0 0 0 0 -0 -0 -0 -0 0 0 0 0 -0 -0 -0 -0 -0 -0 -0 -0 -0 -0 -0 0 -0 -0 0 -0 -0 -0 -0 -0 -0 -0 -0 -0 -0 -0 -0 -0 -0 -0 -0 -0 -0 -0 0 0 0
0 0 0 -0 -0 0 0 0 0 0 0 -0 -0 -0 0 0 -0 -0 -0 -0 -0 -0 -0 0 0 -0 0 -0 -0 -0 -0 -0 -0 -0 -0 -0 -0 -0 -0 -0 -0 -0 -0 -0 -0 -0 0 0 -0
-0 0 0 -0 -0 -0 0 0 0 0 -0 -0 -0 -0 -0 0 -0 -0 -0 -0 -0 -0 -0 -0 0 -0 0 -0 -0 -0 -0 -0 -0 -0 -0 -0 -0 0 0 0 -0 -0 -0 -0 -0 -0 0 0 -0
0 0 0 0 0 0 0 0 0 0 -0 -0 -0 0 0 0 -0 0 -0 -0 -0 -0 -0 -0 -0 -0 -0 -0 0 0 -0 -0 -0 -0 -0 -0 0 0 0 0 -0 -0 -0 -0 -0 -0 0 0 -0
0 0 0 0 0 0 0 -0 0 -0 -0 -0 -0 -0 -0 -0 -0 -0 -0 -0 -0 -0 -0 -0 -0 -0 -0 -0 -0 -0 0 -0 -0 -0 -0 0 0 0 -0 -0 0 -0 -0 0 -0 -0 0 0 0
0 0 -0 -0 -0 -0 0 0 0 -0 -0 -0 -0 0 -0 0 0 -0 -0 -0 -0 -0 -0 -0 -0 -0 -0 -0 -0 0 -0 -0 -0 -0 -0 0 -0 -0 -0 0 -0 -0 -0 0 0 0 0 0 0
0 0 -0 -0 0 -0 0 0 -0 -0 -0 0 -0 -0 -0 -0 0 0 -0 -0 -0 -0 -0 -0 -0 -0 -0 -0 -0 0 -0 0 -0 -0 -0 -0 -0 -0 -0 -0 -0 0 -0 0 0 0 0 0 0
-0 0 -0 0 0 0 0 -0 0 -0 0 0 -0 0 -0 -0 -0 0 0 0 0 -0 -0 -0 -0 -0 -0 -0 0 -0 0 -0 -0 -0 -0 0 -0 -0 -0 -0 -0 0 0 0 0 0 0 0 0
0 0 0 0 0 0 0 0 0 0 0 0 0 0 -0 -0 0 0 0 -0 0 0 0 0 0 0 0 0 0 0 0 0 0 0 0 0 0 -0 -0 -0 0 0 0 0 0 0 0 0 0
0 0 0 0 0 0 0 0 0 0 0 0 0 0 0 -0 0 0 0 0 0 0 0 0 0 0 0 0 0 0 0 0 0 0 0 0 0 0 0 0 0 0 0 0 0 0 0 0 0
0 0 0 0 0 0 0 0 0 0 -0 0 0 0 0 0 0 0 0 0 0 0 0 0 0 0 0 0 0 0 0 0 0 0 0 0 0 1 1 1 0 0 0 0 0 0 0 0 0
0 0 0 0 0 0 0 -0 0 0 0 -0 0 0 0 0 0 0 0 0 0 0 0 0 0 0 0 0 0 0 0 0 0 0 0 1 1 1 1 2 1 0 0 0 0 0 0 0 0
0 0 0 0 0 0 0 0 0 -0 -0 0 0 0 0 0 0 0 0 0 0 0 0 0 0 0 0 0 0 0 0 0 0 0 0 0 0 2 2 3 2 2 1 1 1 0 0 0 0
0 0 0 0 -0 0 0 0 0 0 0 0 0 0 0 -0 -0 0 1 1 1 1 1 0 0 0 0 0 0 0 0 0 0 0 0 0 0 1 2 3 5 3 3 1 1 1 0 0 0
0 0 0 0 0 0 0 0 0 0 0 0 -0 0 0 0 0 0 0 0 0 0 0 0 0 1 0 0 0 0 0 0 0 0 0 0 0 0 1 3 5 5 4 3 2 2 0 0 0
0 0 0 0 0 0 0 0 0 0 -0 0 0 0 0 0 0 0 0 0 0 0 0 0 0 0 0 0 0 0 0 0 0 0 0 0 0 0 0 1 4 5 5 3 2 2 1 0 0
0 0 0 0 0 0 0 0 0 0 0 0 0 0 0 0 0 0 0 0 0 0 0 0 0 0 0 0 0 0 0 0 0 0 0 0 0 0 0 0 3 4 4 4 3 3 1 0 0
0 0 0 0 0 0 0 0 0 0 0 0 0 0 0 0 0 0 0 0 0 0 0 0 0 0 0 0 0 0 0 0 0 0 0 0 0 0 0 0 0 3 4 4 3 3 2 1 0
0 0 0 0 0 0 0 0 0 0 0 0 0 0 0 0 0 0 0 0 0 0 0 0 0 0 0 0 0 0 0 0 0 0 0 0 0 0 1 1 0 0 2 4 4 3 2 2 1
0 0 0 0 0 0 0 0 0 0 0 0 0 0 0 0 0 0 0 0 0 0 0 0 0 0 0 0 0 0 0 0 0 0 0 0 0 0 0 0 1 1 1 1 3 2 3 2 2
Wind_Speed_500mb
4 7 7 4 6 9 7 12 7 6 11 30 37 31 19 11 1 6 37 61 54 56 52 47 41 37 36 39 40 38 36 34 36 41 41 40 39 38 38 37 35 33 30 30 29 24 19 17 12
8 7 2 2 8 7 9 10 8 8 41 59 43 31 18 5 13 33 69 43 54 52 51 48 42 37 36 38 39 38 36 35 36 40 39 38 36 34 33 32 30 28 27 26 25 19 17 12 10
16 0 4 9 6 2 9 6 17 8 42 29 14 24 12 12 33 67 52 56 57 53 51 47 43 38 36 37 39 39 37 35 36 39 38 36 33 31 30 28 27 26 25 24 23 17 16 10 10
13 3 3 6 9 13 12 29 38 13 32 29 38 13 21 14 46 46 56 49 49 52 50 46 42 37 36 37 38 38 37 37 38 41 38 34 29 29 29 28 27 25 24 22 23 17 18 12 13
7 5 9 10 15 12 9 34 37 10 10 23 17 9 10 32 30 51 50 39 37 52 46 43 40 38 36 36 38 38 38 38 40 41 36 31 29 29 30 29 28 26 24 23 24 17 19 15 16
3 6 6 7 16 18 17 38 17 11 29 33 31 21 9 36 46 49 38 27 41 35 34 37 38 37 36 37 39 39 39 40 42 39 33 30 30 30 29 27 25 23 20 19 20 17 20 21 20
7 7 10 12 6 14 11 17 38 33 26 11 45 12 35 55 47 44 32 33 42 27 22 26 35 37 37 38 40 41 41 41 41 36 32 30 29 27 25 24 22 20 19 20 22 21 24 29 23
8 7 9 10 10 12 15 15 62 56 11 44 38 15 27 56 52 47 43 38 35 27 14 23 35 37 39 40 41 42 42 42 39 35 32 29 27 25 22 21 20 19 22 27 29 28 30 25 18
16 5 9 12 13 13 12 5 23 26 46 8 13 44 63 65 62 57 57 47 41 31 15 23 31 35 38 40 42 43 43 41 38 35 32 29 26 26 22 23 23 24 38 45 42 41 38 32 20
16 9 18 26 18 15 19 15 31 17 38 23 35 47 73 61 56 54 62 53 45 30 18 23 31 36 40 43 43 44 44 42 39 36 33 33 29 27 26 24 25 30 51 49 47 43 31 26 17
13 15 8 41 49 60 18 18 23 42 2 50 69 82 72 67 57 54 60 46 29 22 22 18 29 36 41 44 44 44 43 42 40 38 40 34 30 26 23 18 20 34 41 38 36 32 21 15 7
10 25 33 53 64 34 19 14 30 43 31 55 62 79 79 73 66 59 57 47 42 34 25 21 22 36 42 43 45 44 44 43 42 41 40 32 24 19 17 17 14 35 36 31 28 28 27 11 9
11 21 30 36 46 20 27 14 10 26 49 64 71 75 78 70 69 62 48 46 42 40 33 23 20 34 42 44 42 42 42 42 41 44 41 30 24 18 17 17 19 29 25 26 24 27 19 17 11
22 36 45 8 4 9 11 16 20 33 71 73 76 80 76 71 69 64 58 59 55 45 39 31 25 32 40 38 38 39 40 41 46 43 38 31 27 17 20 15 23 31 24 21 22 30 21 16 22
22 13 19 8 7 8 3 15 14 65 76 78 81 83 76 68 69 71 62 71 64 55 43 40 35 30 42 36 29 35 38 41 45 49 42 36 36 31 28 27 27 34 28 22 27 32 33 22 23
12 8 9 16 23 18 13 18 11 77 78 70 76 79 79 73 74 75 65 69 71 61 55 47 44 38 43 40 34 36 43 41 41 45 42 38 38 34 23 25 28 33 29 27 31 36 40 36 34
13 5 12 19 17 11 8 21 14 77 81 71 70 75 82 74 70 75 70 71 73 69 59 53 54 46 41 43 43 39 42 39 36 36 38 37 40 37 30 29 28 34 35 29 32 38 44 41 38
10 5 9 10 17 3 10 24 7 83 62 63 81 74 80 80 75 76 77 72 72 70 60 51 55 54 49 46 48 41 42 38 37 38 39 42 46 45 43 43 35 40 37 44 43 43 44 46 41
9 1 8 12 13 6 10 6 4 40 42 41 51 59 83 82 73 77 81 73 74 73 65 61 55 61 57 57 58 56 57 49 53 48 47 49 51 58 50 48 50 49 44 47 54 57 57 57 50
14 13 12 14 13 4 12 11 12 9 15 34 48 79 84 79 73 82 87 82 77 75 67 61 59 57 64 58 57 59 61 61 58 59 56 54 55 57 56 54 55 59 56 51 54 58 59 58 56
10 14 12 15 10 9 5 14 11 18 21 28 24 31 76 84 86 88 93 88 76 75 69 61 59 59 57 59 55 54 54 66 70 67 68 67 59 60 64 62 62 57 63 65 60 60 61 66 64
7 8 5 10 5 6 7 10 12 14 19 19 30 35 50 92 81 76 86 86 80 71 63 61 55 56 59 60 61 65 64 66 70 76 74 70 75 68 66 71 72 69 66 69 71 66 65 70 75
15 4 7 3 6 6 14 7 16 13 15 13 28 59 51 47 49 53 51 63 57 60 68 72 69 62 60 68 69 67 69 69 70 66 68 70 72 79 81 73 77 81 81 79 74 74 76 80 81
10 10 14 10 6 9 11 10 11 14 12 18 44 58 75 76 65 58 51 41 26 18 32 65 73 69 72 72 70 71 72 74 72 71 71 72 74 76 81 85 88 89 90 86 86 79 82 86 83
13 14 8 9 8 11 8 13 8 13 26 25 45 58 67 80 79 72 65 56 42 36 28 15 29 59 63 67 63 64 63 63 62 65 72 74 77 81 87 84 95 101 101 99 99 96 91 90 93
11 17 12 10 6 10 8 11 6 11 48 58 61 61 74 81 79 76 67 55 48 42 37 40 45 44 22 13 16 35 51 57 59 65 70 79 84 90 92 92 95 100 103 107 106 102 106 97 98
4 5 13 13 2 6 3 7 9 8 28 50 54 66 65 77 77 69 62 54 43 35 36 32 28 25 23 20 11 15 21 21 28 29 36 51 60 66 68 85 101 101 95 96 109 112 111 111 108
8 9 6 6 8 6 8 7 12 11 24 29 37 54 61 63 66 60 52 42 36 27 20 14 11 14 20 23 26 27 30 33 36 38 39 38 36 40 55 64 64 81 98 99 96 104 109 115 122
11 8 12 10 8 10 4 8 6 10 17 27 35 51 49 46 51 49 45 36 29 25 24 23 16 16 23 33 40 45 49 50 49 50 50 49 44 43 44 51 60 65 71 85 94 100 105 110 119
7 4 9 10 5 0 8 6 11 12 23 43 45 61 63 54 49 39 30 20 14 16 20 23 27 34 38 42 44 48 50 54 66 70 66 65 60 55 56 54 48 51 57 65 79 89 100 106 115
Wind_Direction_500mb
159 131 158 241 31 63 284 256 263 75 63 81 84 90 113 75 144 179 146 160 170 170 165 164 164 162 160 156 154 152 149 141 136 137 134 130 126 125 126 127 127 126 123 118 113 109 99 92 80
177 149 298 295 68 29 277 278 232 107 128 99 84 94 66 78 126 147 153 170 174 172 167 166 166 166 164 160 157 155 150 144 143 141 137 131 126 123 124 126 128 128 125 122 117 111 100 99 79
189 51 272 127 120 169 285 292 336 44 130 112 105 68 83 117 137 144 163 162 169 170 167 167 169 169 167 162 161 157 152 150 148 144 138 131 127 127 129 129 130 130 129 127 120 115 108 113 92
169 239 67 70 279 236 205 277 306 289 92 88 119 63 91 149 145 157 157 160 169 168 168 169 171 169 167 165 163 158 156 154 151 147 141 135 132 130 130 132 133 131 129 123 114 115 112 124 104
136 13 27 345 298 265 255 260 279 262 85 99 108 92 77 158 167 155 151 158 172 168 169 172 172 170 169 168 165 162 159 157 153 149 143 137 132 128 127 124 122 119 116 113 109 113 119 137 118
160 42 65 243 258 292 280 280 240 160 120 117 98 96 87 149 148 148 144 136 164 160 167 175 174 173 173 171 168 164 162 159 155 150 143 135 130 127 124 121 118 116 116 114 114 132 133 134 130
141 124 191 258 298 338 320 27 137 143 152 153 134 107 142 148 151 147 142 144 156 147 151 175 180 177 175 174 170 166 164 159 155 148 142 135 131 128 127 125 121 115 111 105 112 134 139 137 127
200 95 150 248 245 263 254 278 138 145 170 145 134 147 162 160 161 161 159 164 163 158 153 185 184 182 178 175 171 167 163 159 153 148 142 137 133 130 129 123 114 103 102 111 120 129 134 146 129
218 24 253 244 218 232 236 223 125 123 137 155 194 156 152 161 167 169 165 167 168 165 165 188 190 184 178 175 172 167 163 159 154 149 144 138 133 127 124 120 113 107 117 118 123 134 140 148 143
166 164 237 218 208 245 232 216 134 111 115 92 119 132 148 168 175 175 172 173 173 164 165 183 191 184 178 177 174 167 164 161 156 151 146 137 133 128 122 122 114 118 133 122 129 134 138 152 156
199 217 224 267 267 236 263 184 131 122 267 156 147 151 157 167 179 183 180 182 182 178 170 151 186 184 179 176 173 170 167 163 159 156 147 145 146 132 116 118 121 134 138 131 129 127 137 155 181
252 258 258 267 268 214 167 161 152 166 184 164 158 158 160 169 183 187 187 188 183 185 182 151 165 183 176 174 175 172 170 165 165 161 160 162 159 141 147 139 119 148 138 140 139 126 132 170 203
214 275 293 276 256 239 176 199 153 183 172 161 162 166 167 175 179 191 202 202 197 191 184 177 169 174 173 173 175 176 174 169 164 161 163 176 175 165 166 188 172 167 160 157 155 150 177 181 174
288 304 302 252 214 233 200 233 135 158 163 162 167 173 171 176 184 187 197 206 202 199 192 189 189 177 170 169 179 181 180 171 173 170 170 185 191 193 194 190 195 179 174 176 174 168 189 184 165
301 336 329 319 347 298 157 312 170 164 164 166 176 177 176 177 186 193 195 201 205 204 196 196 200 192 181 170 176 187 182 179 180 175 179 194 205 199 194 185 200 195 184 197 187 174 176 206 190
348 52 7 299 351 300 72 280 109 164 162 175 184 185 184 179 189 197 195 201 204 204 200 197 203 205 198 188 191 189 179 175 174 177 189 206 214 219 214 193 192 194 193 198 195 183 192 208 224
7 286 324 320 335 274 137 264 234 176 174 180 184 189 190 190 193 200 200 201 203 207 201 201 202 211 208 204 206 204 193 190 190 190 191 205 211 223 225 217 214 212 211 212 214 191 205 216 213
259 323 295 284 292 277 319 239 248 182 177 178 194 189 194 196 199 198 202 203 203 207 207 206 209 210 215 206 209 214 210 215 213 221 216 215 219 220 234 241 234 229 220 217 221 215 222 224 220
222 312 283 269 264 269 301 299 249 171 181 183 200 196 196 204 203 199 202 204 203 203 206 206 211 212 216 213 211 212 214 216 220 222 225 226 231 228 232 238 242 228 232 224 225 227 221 218 219
241 254 265 278 273 57 329 307 293 252 209 219 194 202 202 203 202 203 202 205 203 205 208 211 213 216 219 224 226 227 223 219 219 220 223 232 234 230 236 237 239 233 235 236 233 229 220 220 221
227 186 223 232 323 326 327 328 330 302 302 289 95 181 198 198 202 205 201 203 200 204 208 215 221 218 225 225 225 230 234 232 229 227 226 226 231 235 240 244 243 246 242 244 243 239 232 223 220
186 214 300 332 27 243 38 270 294 294 306 57 81 105 183 201 201 198 197 199 200 206 211 219 227 229 231 232 231 234 234 231 234 234 237 233 231 234 238 243 246 246 249 248 245 245 244 233 228
228 205 246 206 61 64 322 38 270 347 24 96 82 80 98 156 167 169 174 189 195 206 212 215 221 230 237 236 238 242 246 249 249 250 249 246 243 241 243 246 245 246 247 252 251 247 245 239 231
141 64 39 44 57 6 258 135 338 341 137 119 86 81 86 104 114 126 132 145 141 166 217 226 223 225 231 236 241 244 250 257 257 262 262 262 259 254 250 250 251 250 245 253 256 255 253 251 241
79 60 7 357 15 224 67 68 307 357 67 81 93 85 89 97 100 101 105 110 110 104 96 102 205 231 235 239 245 251 254 259 263 268 273 269 266 260 256 253 254 254 251 253 259 259 259 254 251
182 144 151 190 201 257 6 140 140 97 84 86 87 92 93 98 101 100 101 103 99 92 89 90 85 82 104 181 259 276 265 264 269 272 272 268 265 265 264 264 262 259 257 255 255 257 260 260 258
194 178 180 108 321 74 176 63 52 106 89 86 90 92 91 99 102 98 96 96 104 97 81 74 64 57 38 32 5 336 330 319 305 309 315 295 281 275 271 269 264 265 265 259 256 255 258 261 260
138 171 68 9 127 182 274 181 185 158 111 101 97 94 97 97 98 99 95 92 90 90 92 77 41 5 349 341 333 325 320 314 310 310 308 298 297 298 285 271 268 270 266 264 262 260 256 256 259
352 357 60 116 116 159 155 269 215 150 124 111 108 105 99 98 96 95 91 89 85 80 70 67 48 354 334 331 325 318 312 308 303 303 306 309 301 297 289 289 280 269 271 272 265 262 261 257 257
166 9 118 113 237 95 138 291 358 145 119 96 91 87 87 96 99 91 82 72 45 14 348 342 340 337 329 324 316 308 308 303 297 301 304 305 303 304 300 296 290 282 277 276 278 271 268 264 260
Wind_Speed_850mb
4 7 7 4 6 9 7 12 7 6 11 30 37 31 19 11 1 6 37 61 54 56 52 47 41 37 36 39 40 38 36 34 36 41 41 40 39 38 38 37 35 33 30 30 29 24 19 17 12
8 7 2 2 8 7 9 10 8 8 41 59 43 31 18 5 13 33 69 43 54 52 51 48 42 37 36 38 39 38 36 35 36 40 39 38 36 34 33 32 30 28 27 26 25 19 17 12 10
16 0 4 9 6 2 9 6 17 8 42 29 14 24 12 12 33 67 52 56 57 53 51 47 43 38 36 37 39 39 37 35 36 39 38 36 33 31 30 28 27 26 25 24 23 17 16 10 10
13 3 3 6 9 13 12 29 38 13 32 29 38 13 21 14 46 46 56 49 49 52 50 46 42 37 36 37 38 38 37 37 38 41 38 34 29 29 29 28 27 25 24 22 23 17 18 12 13
7 5 9 10 15 12 9 34 37 10 10 23 17 9 10 32 30 51 50 39 37 52 46 43 40 38 36 36 38 38 38 38 40 41 36 31 29 29 30 29 28 26 24 23 24 17 19 15 16
3 6 6 7 16 18 17 38 17 11 29 33 31 21 9 36 46 49 38 27 41 35 34 37 38 37 36 37 39 39 39 40 42 39 33 30 30 30 29 27 25 23 20 19 20 17 20 21 20
7 7 10 12 6 14 11 17 38 33 26 11 45 12 35 55 47 44 32 33 42 27 22 26 35 37 37 38 40 41 41 41 41 36 32 30 29 27 25 24 22 20 19 20 22 21 24 29 23
8 7 9 10 10 12 15 15 62 56 11 44 38 15 27 56 52 47 43 38 35 27 14 23 35 37 39 40 41 42 42 42 39 35 32 29 27 25 22 21 20 19 22 27 29 28 30 25 18
16 5 9 12 13 13 12 5 23 26 46 8 13 44 63 65 62 57 57 47 41 31 15 23 31 35 38 40 42 43 43 41 38 35 32 29 26 26 22 23 23 24 38 45 42 41 38 32 20
16 9 18 26 18 15 19 15 31 17 38 23 35 47 73 61 56 54 62 53 45 30 18 23 31 36 40 43 43 44 44 42 39 36 33 33 29 27 26 24 25 30 51 49 47 43 31 26 17
13 15 8 41 49 60 18 18 23 42 2 50 69 82 72 67 57 54 60 46 29 22 22 18 29 36 41 44 44 44 43 42 40 38 40 34 30 26 23 18 20 34 41 38 36 32 21 15 7
10 25 33 53 64 34 19 14 30 43 31 55 62 79 79 73 66 59 57 47 42 34 25 21 22 36 42 43 45 44 44 43 42 41 40 32 24 19 17 17 14 35 36 31 28 28 27 11 9
11 21 30 36 46 20 27 14 10 26 49 64 71 75 78 70 69 62 48 46 42 40 33 23 20 34 42 44 42 42 42 42 41 44 41 30 24 18 17 17 19 29 25 26 24 27 19 17 11
22 36 45 8 4 9 11 16 20 33 71 73 76 80 76 71 69 64 58 59 55 45 39 31 25 32 40 38 38 39 40 41 46 43 38 31 27 17 20 15 23 31 24 21 22 30 21 16 22
22 13 19 8 7 8 3 15 14 65 76 78 81 83 76 68 69 71 62 71 64 55 43 40 35 30 42 36 29 35 38 41 45 49 42 36 36 31 28 27 27 34 28 22 27 32 33 22 23
12 8 9 16 23 18 13 18 11 77 78 70 76 79 79 73 74 75 65 69 71 61 55 47 44 38 43 40 34 36 43 41 41 45 42 38 38 34 23 25 28 33 29 27 31 36 40 36 34
13 5 12 19 17 11 8 21 14 77 81 71 70 75 82 74 70 75 70 71 73 69 59 53 54 46 41 43 43 39 42 39 36 36 38 37 40 37 30 29 28 34 35 29 32 38 44 41 38
10 5 9 10 17 3 10 24 7 83 62 63 81 74 80 80 75 76 77 72 72 70 60 51 55 54 49 46 48 41 42 38 37 38 39 42 46 45 43 43 35 40 37 44 43 43 44 46 41
9 1 8 12 13 6 10 6 4 40 42 41 51 59 83 82 73 77 81 73 74 73 65 61 55 61 57 57 58 56 57 49 53 48 47 49 51 58 50 48 50 49 44 47 54 57 57 57 50
14 13 12 14 13 4 12 11 12 9 15 34 48 79 84 79 73 82 87 82 77 75 67 61 59 57 64 58 57 59 61 61 58 59 56 54 55 57 56 54 55 59 56 51 54 58 59 58 56
10 14 12 15 10 9 5 14 11 18 21 28 24 31 76 84 86 88 93 88 76 75 69 61 59 59 57 59 55 54 54 66 70 67 68 67 59 60 64 62 62 57 63 65 60 60 61 66 64
7 8 5 10 5 6 7 10 12 14 19 19 30 35 50 92 81 76 86 86 80 71 63 61 55 56 59 60 61 65 64 66 70 76 74 70 75 68 66 71 72 69 66 69 71 66 65 70 75
15 4 7 3 6 6 14 7 16 13 15 13 28 59 51 47 49 53 51 63 57 60 68 72 69 62 60 68 69 67 69 69 70 66 68 70 72 79 81 73 77 81 81 79 74 74 76 80 81
10 10 14 10 6 9 11 10 11 14 12 18 44 58 75 76 65 58 51 41 26 18 32 65 73 69 72 72 70 71 72 74 72 71 71 72 74 76 81 85 88 89 90 86 86 79 82 86 83
13 14 8 9 8 11 8 13 8 13 26 25 45 58 67 80 79 72 65 56 42 36 28 15 29 59 63 67 63 64 63 63 62 65 72 74 77 81 87 84 95 101 101 99 99 96 91 90 93
11 17 12 10 6 10 8 11 6 11 48 58 61 61 74 81 79 76 67 55 48 42 37 40 45 44 22 13 16 35 51 57 59 65 70 79 84 90 92 92 95 100 103 107 106 102 106 97 98
4 5 13 13 2 6 3 7 9 8 28 50 54 66 65 77 77 69 62 54 43 35 36 32 28 25 23 20 11 15 21 21 28 29 36 51 60 66 68 85 101 101 95 96 109 112 111 111 108
8 9 6 6 8 6 8 7 12 11 24 29 37 54 61 63 66 60 52 42 36 27 20 14 11 14 20 23 26 27 30 33 36 38 39 38 36 40 55 64 64 81 98 99 96 104 109 115 122
11 8 12 10 8 10 4 8 6 10 17 27 35 51 49 46 51 49 45 36 29 25 24 23 16 16 23 33 40 45 49 50 49 50 50 49 44 43 44 51 60 65 71 85 94 100 105 110 119
7 4 9 10 5 0 8 6 11 12 23 43 45 61 63 54 49 39 30 20 14 16 20 23 27 34 38 42 44 48 50 54 66 70 66 65 60 55 56 54 48 51 57 65 79 89 100 106 115
Wind_Direction_850mb
159 131 158 241 31 63 284 256 263 75 63 81 84 90 113 75 144 179 146 160 170 170 165 164 164 162 160 156 154 152 149 141 136 137 134 130 126 125 126 127 127 126 123 118 113 109 99 92 80
177 149 298 295 68 29 277 278 232 107 128 99 84 94 66 78 126 147 153 170 174 172 167 166 166 166 164 160 157 155 150 144 143 141 137 131 126 123 124 126 128 128 125 122 117 111 100 99 79
189 51 272 127 120 169 285 292 336 44 130 112 105 68 83 117 137 144 163 162 169 170 167 167 169 169 167 162 161 157 152 150 148 144 138 131 127 127 129 129 130 130 129 127 120 115 108 113 92
169 239 67 70 279 236 205 277 306 289 92 88 119 63 91 149 145 157 157 160 169 168 168 169 171 169 167 165 163 158 156 154 151 147 141 135 132 130 130 132 133 131 129 123 114 115 112 124 104
136 13 27 345 298 265 255 260 279 262 85 99 108 92 77 158 167 155 151 158 172 168 169 172 172 170 169 168 165 162 159 157 153 149 143 137 132 128 127 124 122 119 116 113 109 113 119 137 118
160 42 65 243 258 292 280 280 240 160 120 117 98 96 87 149 148 148 144 136 164 160 167 175 174 173 173 171 168 164 162 159 155 150 143 135 130 127 124 121 118 116 116 114 114 132 133 134 130
141 124 191 258 298 338 320 27 137 143 152 153 134 107 142 148 151 147 142 144 156 147 151 175 180 177 175 174 170 166 164 159 155 148 142 135 131 128 127 125 121 115 111 105 112 134 139 137 127
200 95 150 248 245 263 254 278 138 145 170 145 134 147 162 160 161 161 159 164 163 158 153 185 184 182 178 175 171 167 163 159 153 148 142 137 133 130 129 123 114 103 102 111 120 129 134 146 129
218 24 253 244 218 232 236 223 125 123 137 155 194 156 152 161 167 169 165 167 168 165 165 188 190 184 178 175 172 167 163 159 154 149 144 138 133 127 124 120 113 107 117 118 123 134 140 148 143
166 164 237 218 208 245 232 216 134 111 115 92 119 132 148 168 175 175 172 173 173 164 165 183 191 184 178 177 174 167 164 161 156 151 146 137 133 128 122 122 114 118 133 122 129 134 138 152 156
199 217 224 267 267 236 263 184 131 122 267 156 147 151 157 167 179 183 180 182 182 178 170 151 186 184 179 176 173 170 167 163 159 156 147 145 146 132 116 118 121 134 138 131 129 127 137 155 181
252 258 258 267 268 214 167 161 152 166 184 164 158 158 160 169 183 187 187 188 183 185 182 151 165 183 176 174 175 172 170 165 165 161 160 162 159 141 147 139 119 148 138 140 139 126 132 170 203
214 275 293 276 256 239 176 199 153 183 172 161 162 166 167 175 179 191 202 202 197 191 184 177 169 174 173 173 175 176 174 169 164 161 163 176 175 165 166 188 172 167 160 157 155 150 177 181 174
288 304 302 252 214 233 200 233 135 158 163 162 167 173 171 176 184 187 197 206 202 199 192 189 189 177 170 169 179 181 180 171 173 170 170 185 191 193 194 190 195 179 174 176 174 168 189 184 165
301 336 329 319 347 298 157 312 170 164 164 166 176 177 176 177 186 193 195 201 205 204 196 196 200 192 181 170 176 187 182 179 180 175 179 194 205 199 194 185 200 195 184 197 187 174 176 206 190
348 52 7 299 351 300 72 280 109 164 162 175 184 185 184 179 189 197 195 201 204 204 200 197 203 205 198 188 191 189 179 175 174 177 189 206 214 219 214 193 192 194 193 198 195 183 192 208 224
7 286 324 320 335 274 137 264 234 176 174 180 184 189 190 190 193 200 200 201 203 207 201 201 202 211 208 204 206 204 193 190 190 190 191 205 211 223 225 217 214 212 211 212 214 191 205 216 213
259 323 295 284 292 277 319 239 248 182 177 178 194 189 194 196 199 198 202 203 203 207 207 206 209 210 215 206 209 214 210 215 213 221 216 215 219 220 234 241 234 229 220 217 221 215 222 224 220
222 312 283 269 264 269 301 299 249 171 181 183 200 196 196 204 203 199 202 204 203 203 206 206 211 212 216 213 211 212 214 216 220 222 225 226 231 228 232 238 242 228 232 224 225 227 221 218 219
241 254 265 278 273 57 329 307 293 252 209 219 194 202 202 203 202 203 202 205 203 205 208 211 213 216 219 224 226 227 223 219 219 220 223 232 234 230 236 237 239 233 235 236 233 229 220 220 221
227 186 223 232 323 326 327 328 330 302 302 289 95 181 198 198 202 205 201 203 200 204 208 215 221 218 225 225 225 230 234 232 229 227 226 226 231 235 240 244 243 246 242 244 243 239 232 223 220
186 214 300 332 27 243 38 270 294 294 306 57 81 105 183 201 201 198 197 199 200 206 211 219 227 229 231 232 231 234 234 231 234 234 237 233 231 234 238 243 246 246 249 248 245 245 244 233 228
228 205 246 206 61 64 322 38 270 347 24 96 82 80 98 156 167 169 174 189 195 206 212 215 221 230 237 236 238 242 246 249 249 250 249 246 243 241 243 246 245 246 247 252 251 247 245 239 231
141 64 39 44 57 6 258 135 338 341 137 119 86 81 86 104 114 126 132 145 141 166 217 226 223 225 231 236 241 244 250 257 257 262 262 262 259 254 250 250 251 250 245 253 256 255 253 251 241
79 60 7 357 15 224 67 68 307 357 67 81 93 85 89 97 100 101 105 110 110 104 96 102 205 231 235 239 245 251 254 259 263 268 273 269 266 260 256 253 254 254 251 253 259 259 259 254 251
182 144 151 190 201 257 6 140 140 97 84 86 87 92 93 98 101 100 101 103 99 92 89 90 85 82 104 181 259 276 265 264 269 272 272 268 265 265 264 264 262 259 257 255 255 257 260 260 258
194 178 180 108 321 74 176 63 52 106 89 86 90 92 91 99 102 98 96 96 104 97 81 74 64 57 38 32 5 336 330 319 305 309 315 295 281 275 271 269 264 265 265 259 256 255 258 261 260
138 171 68 9 127 182 274 181 185 158 111 101 97 94 97 97 98 99 95 92 90 90 92 77 41 5 349 341 333 325 320 314 310 310 308 298 297 298 285 271 268 270 266 264 262 260 256 256 259
352 357 60 116 116 159 155 269 215 150 124 111 108 105 99 98 96 95 91 89 85 80 70 67 48 354 334 331 325 318 312 308 303 303 306 309 301 297 289 289 280 269 271 272 265 262 261 257 257
166 9 118 113 237 95 138 291 358 145 119 96 91 87 87 96 99 91 82 72 45 14 348 342 340 337 329 324 316 308 308 303 297 301 304 305 303 304 300 296 290 282 277 276 278 271 268 264 260